Weather History for Portage Glacier, AK

Change the Weather History Date:

Monday, October 28, 2013

  Actual Average Record
Temperature  
Mean Temperature 47 °F -  
Max Temperature 52 °F - - ()
Min Temperature 42 °F - - ()
Degree Days  
Heating Degree Days 18    
Moisture  
Dew Point 44 °F    
Average Humidity 84    
Maximum Humidity 100    
Minimum Humidity 77    
Precipitation  
Precipitation 3.73 in - - ()
Sea Level Pressure  
Sea Level Pressure 29.54 in    
Wind  
Wind Speed 22 mph (East)    
Max Wind Speed 39 mph    
Max Gust Speed 78 mph    
Visibility 4 miles    
Events Rain    
T = Trace of Precipitation, MM = Missing Value Source: NWS Daily Summary

Daily Weather History Graph

Daily Weather History Graph

Search for Another Location

Airport:

Trip Planner

Search our weather history database for the weather conditions in past years. The results will help you decide how hot, cold, wet, or windy it might be!

Date:

Astronomy

Oct. 28, 2013 Rise Set
Actual Time 9:11 AM AKDT 6:05 PM AKDT
Civil Twilight 8:26 AM AKDT 6:51 PM AKDT
Nautical Twilight 7:35 AM AKDT 7:41 PM AKDT
Astronomical Twilight 6:46 AM AKDT 8:30 PM AKDT
Moon 1:43 AM AKDT 4:14 PM AKDT
Length of Visible Light 10h 24m
Length of Day
8h 53m
Waning Crescent, 33% of the Moon is Illuminated
Oct 28
Waning Crescent
Nov 3
New
Nov 9
First Quarter
Nov 17
Full
Nov 25
Last Quarter

Hourly Weather History & Observations

Time (AKDT) Temp. Windchill Dew Point Humidity Pressure Visibility Wind Dir Wind Speed Gust Speed Precip Events Conditions
12:36 AM 45.0 °F 37.1 °F 42.1 °F 90% 29.85 in 2.5 mi ESE 19.6 mph 41.4 mph 0.07 in Rain Rain
12:43 AM 45.0 °F 37.1 °F 42.1 °F 90% 29.84 in 3.0 mi ESE 19.6 mph 35.7 mph 0.09 in Rain Rain
12:50 AM 46.4 °F 39.2 °F 42.8 °F 87% 29.85 in 2.0 mi East 18.4 mph 35.7 mph 0.11 in Rain Rain
12:53 AM 46.0 °F 37.6 °F 42.1 °F 86% 29.86 in 2.0 mi SE 24.2 mph 42.6 mph 0.12 in Rain Rain
1:16 AM 46.9 °F - 42.1 °F 83% 29.80 in 4.0 mi East 29.9 mph 54.1 mph 0.07 in Rain Light Rain
1:30 AM 46.9 °F - 42.1 °F 83% 29.80 in 2.5 mi ESE 20.7 mph 48.3 mph 0.10 in Rain Rain
1:53 AM 46.9 °F - 43.0 °F 86% 29.80 in 2.5 mi ESE 20.7 mph 44.9 mph 0.14 in Rain Rain
2:34 AM 48.0 °F - 43.0 °F 83% 29.78 in 3.0 mi ESE 21.9 mph 51.8 mph 0.12 in Rain Light Rain
2:45 AM 48.0 °F - 43.0 °F 83% 29.76 in 2.0 mi ESE 23.0 mph 48.3 mph 0.15 in Rain Rain
2:53 AM 48.0 °F - 43.0 °F 83% 29.77 in 2.0 mi East 18.4 mph 42.6 mph 0.16 in Rain Rain
3:17 AM 48.0 °F - 44.1 °F 86% 29.74 in 1.8 mi East 21.9 mph 44.9 mph 0.09 in Rain Heavy Rain
3:25 AM 48.0 °F - 44.1 °F 86% 29.74 in 2.5 mi ESE 23.0 mph 44.9 mph 0.12 in Rain Heavy Rain
3:44 AM 50.0 °F - 44.1 °F 80% 29.73 in 3.0 mi ESE 27.6 mph 50.6 mph 0.17 in Rain Rain
3:51 AM 48.2 °F - 44.6 °F 87% 29.70 in 2.0 mi East 27.6 mph 46.0 mph 0.20 in Rain Rain
3:53 AM 48.9 °F - 44.1 °F 83% 29.71 in 1.8 mi ESE 27.6 mph 51.8 mph 0.21 in Rain Rain
4:35 AM 48.9 °F - 44.1 °F 83% 29.69 in 2.0 mi East 24.2 mph 57.5 mph 0.19 in Rain Heavy Rain
4:44 AM 50.0 °F - 45.0 °F 83% 29.69 in 1.8 mi East 25.3 mph 73.6 mph 0.23 in Rain Heavy Rain
4:53 AM 48.9 °F - 45.0 °F 86% 29.67 in 1.8 mi East 29.9 mph 56.4 mph 0.29 in Rain Heavy Rain
5:09 AM 51.1 °F - 44.1 °F 77% 29.64 in 2.5 mi East 28.8 mph 52.9 mph 0.07 in Rain Heavy Rain
5:26 AM 51.1 °F - 45.0 °F 80% 29.63 in 3.0 mi East 28.8 mph 64.4 mph 0.11 in Rain Rain
5:31 AM 50.0 °F - 45.0 °F 83% 29.62 in 2.0 mi East 21.9 mph 61.0 mph 0.12 in Rain Rain
5:53 AM 50.0 °F - 46.0 °F 86% 29.58 in 2.0 mi East 33.4 mph 62.1 mph 0.18 in Rain Rain
6:04 AM 50.0 °F - 44.1 °F 80% 29.59 in 1.8 mi East 33.4 mph 55.2 mph 0.04 in Rain Rain
6:53 AM 48.9 °F - 45.0 °F 86% 29.55 in 1.2 mi East 36.8 mph 62.1 mph 0.25 in Rain Rain
7:43 AM 50.0 °F - 45.0 °F 83% 29.46 in 2.0 mi East 38.0 mph 78.3 mph 0.18 in Rain Rain
7:53 AM 50.0 °F - 45.0 °F 83% 29.47 in 1.8 mi East 39.1 mph 69.0 mph 0.20 in Rain Rain
8:38 AM 50.0 °F - 45.0 °F 83% 29.45 in 1.8 mi East 32.2 mph 69.0 mph 0.25 in Rain Heavy Rain
8:53 AM 50.0 °F - 45.0 °F 83% 29.39 in 2.5 mi East 23.0 mph 57.5 mph 0.31 in Rain Rain
9:01 AM 51.1 °F - 45.0 °F 80% 29.41 in 2.0 mi East 39.1 mph 70.2 mph 0.05 in Rain Heavy Rain
9:53 AM 51.1 °F - 45.0 °F 80% 29.39 in 2.0 mi East 21.9 mph 70.2 mph 0.37 in Rain Heavy Rain
10:53 AM 51.1 °F - 45.0 °F 80% 29.34 in 2.5 mi East 18.4 mph 51.8 mph 0.39 in Rain Heavy Rain
11:53 AM 51.1 °F - 45.0 °F 80% 29.28 in 2.0 mi ESE 28.8 mph 62.1 mph 0.47 in Rain Heavy Rain
12:15 PM 51.1 °F - 45.0 °F 80% 29.25 in 1.2 mi ESE 25.3 mph 57.5 mph 0.17 in Rain Heavy Rain
12:53 PM 52.0 °F - 45.0 °F 77% 29.24 in 1.5 mi ESE 21.9 mph 40.3 mph 0.42 in Rain Heavy Rain
1:07 PM 51.1 °F - 45.0 °F 80% 29.24 in 2.0 mi East 23.0 mph 36.8 mph 0.06 in Rain Heavy Rain
1:15 PM 51.1 °F - 45.0 °F 80% 29.24 in 1.8 mi East 18.4 mph 35.7 mph 0.10 in Rain Heavy Rain
1:27 PM 51.1 °F - 45.0 °F 80% 29.25 in 2.5 mi East 11.5 mph 39.1 mph 0.13 in Rain Rain
1:38 PM 51.1 °F - 45.0 °F 80% 29.25 in 3.0 mi ENE 18.4 mph 34.5 mph 0.14 in Rain Rain
1:53 PM 51.1 °F - 45.0 °F 80% 29.26 in 4.0 mi East 19.6 mph 33.4 mph 0.17 in Rain Light Rain
2:53 PM 50.0 °F - 46.0 °F 86% 29.29 in 10.0 mi Variable 3.5 mph - 0.02 in Rain Light Rain
3:53 PM 48.9 °F - 46.9 °F 93% 29.32 in 10.0 mi East 3.5 mph - 0.03 in Rain Light Rain
4:53 PM 46.9 °F - 46.9 °F 100% 29.36 in 10.0 mi WNW 4.6 mph - 0.00 in   Overcast
5:53 PM 46.0 °F 44.8 °F 45.0 °F 96% 29.38 in 10.0 mi West 3.5 mph - 0.00 in   Mostly Cloudy
6:53 PM 43.0 °F 39.5 °F 41.0 °F 93% 29.39 in 10.0 mi SE 5.8 mph - N/A   Mostly Cloudy
7:53 PM 42.1 °F 37.7 °F 39.9 °F 92% 29.41 in 10.0 mi SE 6.9 mph - N/A   Mostly Cloudy
8:53 PM 45.0 °F 41.2 °F 42.1 °F 90% 29.42 in 10.0 mi East 6.9 mph - N/A   Scattered Clouds
9:53 PM 46.0 °F 42.5 °F 42.1 °F 86% 29.44 in 10.0 mi East 6.9 mph - N/A   Clear
10:53 PM 45.0 °F 40.1 °F 41.0 °F 86% 29.46 in 10.0 mi East 9.2 mph - N/A   Overcast
11:53 PM 44.1 °F 40.1 °F 41.0 °F 89% 29.48 in 10.0 mi East 6.9 mph - N/A   Scattered Clouds